Regional Weather Roundup
Issued by NWS

Home | Current Version | Previous Version | Graphics & Text | Print | Product List | Glossary On
Versions: 1 2 3 4 5 6 7 8 9 10 11 12 13 14 15 16 17 18 19 20 21 22 23 24 25 26 27 28 29 30 31 32 33 34 35 36 37 38 39 40 41 42 43 44 45 46 47 48 49 50
597
ASUS45 KTFX 250110
RWRMT
MONTANA REGIONAL WEATHER ROUNDUP
NATIONAL WEATHER SERVICE GREAT FALLS MT
700 PM MDT WED AUG 24 2016

NOTE: "FAIR" INDICATES FEW OR NO CLOUDS BELOW 12000 FEET WITH NO
SIGNIFICANT WEATHER AND/OR OBSTRUCTIONS TO VISIBILITY.

MTZ001>007-043-250200-
WEST OF THE DIVIDE

CITY           SKY/WX    TMP DP  RH WIND       PRES   REMARKS
KALISPELL      MOSUNNY   71  34  25 NE8       30.24F
MISSOULA       PTSUNNY   66  47  50 S5        30.27F
BUTTE          PTSUNNY   60  32  34 N13       30.32S
MULLAN PASS    MOSUNNY   59  36  42 CALM      30.35F
DEER LODGE       N/A     63  34  34 NE10      30.34S
EUREKA           N/A     77  36  22 SW3       30.24F
HAMILTON         N/A     66  43  42 N15G24    30.24S
LIBBY            N/A     73  36  25 N5        30.23S
PLAINS           N/A     79  39  23 E7        30.21F
$$

MTZ008-052>055-250200-
SOUTHWEST MONTANA

CITY           SKY/WX    TMP DP  RH WIND       PRES   REMARKS
BOZEMAN        SUNNY     62  38  40 N15       30.30S
DILLON         SUNNY     63  34  33 N22G30    30.27R
W YELLOWSTONE  CLOUDY    57  28  33 NE15G21   30.30S
ENNIS          SUNNY     61  32  33 N21       30.33R
THREE FORKS      N/A     65 -40   1 N13       30.27S
TWIN BRIDGES     N/A     66  32  28 N15       30.23S
$$

MTZ009-010-012-014-046-048-049-054-250200-
EAST SLOPES AND CENTRAL MONTANA

CITY           SKY/WX    TMP DP  RH WIND       PRES   REMARKS
CUT BANK       MOSUNNY   63  34  33 N10       30.32F
GREAT FALLS    CLOUDY    62  38  40 S3        30.33S
MALMSTROM AFB  CLOUDY    60  40  48 MISG      30.33S
HELENA         SUNNY     66  34  30 N12       30.32R
CHOTEAU          N/A     64  36  34 NE9       30.35F
CONRAD           N/A     66  41  40 NW2       30.32F
$$

MTZ011-013-016-021-045-047-050-051-250200-
NORTH CENTRAL MONTANA

CITY           SKY/WX    TMP DP  RH WIND       PRES   REMARKS
HAVRE          CLOUDY    62  44  51 NW10      30.29S
LEWISTOWN      CLOUDY    59  38  45 N10G20    30.33F
N BAR RANCH      N/A     55  39  54 NW15G25   30.33S
CHINOOK          N/A     63  43  48 N6        30.28R
$$

MTZ017>020-022>027-061-062-250200-
NORTHEAST MONTANA

CITY           SKY/WX    TMP DP  RH WIND       PRES   REMARKS
GLASGOW        CLOUDY    57  46  66 NW18G25   30.21R
JORDAN           N/A     61  42  49 NW17      30.23R
SIDNEY         CLOUDY    60  48  64 NW18G26   30.13R
WOLF POINT     CLOUDY    60  46  59 NW14G20   30.18S
POPLAR           N/A     57  46  67 NW17G23   30.16S
SCOBEY           N/A     53  45  74 NW12      30.15R
$$

MTZ028>42-056>058-250200-
SOUTHCENTRAL AND SOUTHEAST MONTANA

CITY           SKY/WX    TMP DP  RH WIND       PRES   REMARKS
BAKER          CLOUDY    59  42  53 NW24G31   30.19R
BILLINGS       CLOUDY    63  40  42 NE16      30.29R
LIVINGSTON     CLOUDY    59  41  51 E18       30.32R
MILES CITY     CLOUDY    63  40  42 N21G29    30.22R
EKALAKA          N/A     60  40  47 NW12      30.17R
FORSYTH          N/A     63  41  45 NW12G20   30.24R
LAUREL           N/A     62  38  41 N12       30.27R
ROUNDUP          N/A     62  37  39 NW14      30.19S
$$

REGIONAL REPORTS...DAKOTAS

CITY           SKY/WX    TMP DP  RH WIND       PRES   REMARKS
WILLISTON      CLOUDY    58  48  69 N21G30    30.10R
MINOT          CLOUDY    62  53  72 W18G24    29.96S
DICKINSON      CLOUDY    60  43  53 W24G30    30.09R
CROSBY         CLOUDY    55  48  76 NW20G29   30.08R
WATFORD CITY   CLOUDY    54  52  94 NW14G23   30.10R FOG
BISMARCK       CLEAR     68  45  43 W21G28    30.03R
GRAND FORKS    PTCLDY    68  52  56 W9        29.89R
FARGO          CLEAR     69  52  54 W8        29.94S
BUFFALO SD       N/A     65  43  44 NW22G29   30.10R
RAPID CITY     PTCLDY    68  44  42 N15       30.17R
$$

REGIONAL REPORTS...WYOMING/IDAHO/WASHINGTON

CITY           SKY/WX    TMP DP  RH WIND       PRES   REMARKS
GILLETTE       CLOUDY    64  41  42 N15       30.23R
SHERIDAN       CLOUDY    62  42  47 NW13      30.27R
BUFFALO WY     LGT RAIN  58  43  57 NW14G22   30.30R
CODY           CLOUDY    52  46  82 W6        30.34S
YELLOWSTONE LA   N/A     49  39  68 VRB3      30.36F
IDAHO FALLS    PTSUNNY   69  33  26 N17G24    30.16R
SALMON         PTSUNNY   73  34  23 E13       30.15S
BOISE          SUNNY     81  26  13 W13       30.05F
SPOKANE        MOSUNNY   80  36  20 N12       30.18S
$$

REGIONAL REPORTS...ALBERTA

CITY           SKY/WX    TMP DP  RH WIND       PRES   REMARKS
EDMONTON       MOSUNNY   66  54  63 W5        30.21F
CALGARY        PTSUNNY   63  43  48 N8        30.31F
LETHBRIDGE     MOSUNNY   66  39  37 N5        30.30F
MEDICINE HAT   MOSUNNY   66  48  52 S7        30.26S
WATERTON GATE    N/A     61  37  41 NE2         N/A
MILK RIVER       N/A     59  45  58 E9          N/A
$$

REGIONAL REPORTS...SASKATCHEWAN

CITY           SKY/WX    TMP DP  RH WIND       PRES   REMARKS
SWIFT CURRENT  PTSUNNY   59  48  67 NW8       30.20F
REGINA         LGT RAIN  55  52  88 NW14      30.12S
SASKATOON      MOCLDY    66  54  63 NW6       30.15S
VAL MARIE        N/A     57  41  54 N10         N/A
ROCKGLEN         N/A     50  46  87 NW14G21     N/A
ASSINIBOIA       N/A     68  54  60 W9          N/A
$$




USA.gov is the U.S. government's official web portal to all federal, state and local government web resources and services.